QPF
0.00 0.00 0.00 0.00 0.00 0.00 0.00 0.00 0.00 0.00 0.00 0.00 0.00 0.00 0.00 0.00 0.00 0.00 0.00 0.00 0.00 0.00 0.00 0.00 0.00 0.00 0.00 0.00 0.00 0.00 0.00 0.01 0.03 0.07 0.07 0.14 0.19 0.15 0.10 0.05 0.05 0.04 0.03
0.00 0.00 0.00 0.00 0.00 0.00 0.00 0.00 0.00 0.00 0.00 0.00 0.00 0.00 0.00 0.00 0.00 0.00 0.00 0.00 0.00 0.00 0.00 0.00 0.00 0.00 0.00 0.00 0.00 0.00 0.00 0.00 0.00 0.03 0.03 0.05 0.07 0.11 0.11 0.05 0.01 0.00 0.00
0.00 0.00 0.00 0.00 0.00 0.00 0.00 0.00 0.00 0.00 0.00 0.00 0.00 0.00 0.00 0.00 0.00 0.00 0.00 0.00 0.00 0.00 0.00 0.00 0.00 0.00 0.00 0.00 0.00 0.00 0.00 0.00 0.00 0.01 0.02 0.04 0.02 0.01 0.03 0.02 0.01 0.00 0.00
0.00 0.00 0.00 0.00 0.00 0.00 0.00 0.00 0.00 0.00 0.00 0.00 0.00 0.00 0.00 0.00 0.00 0.00 0.00 0.00 0.00 0.00 0.00 0.00 0.00 0.00 0.00 0.00 0.00 0.00 0.00 0.00 0.00 0.00 0.00 0.01 0.03 0.04 0.03 0.02 0.01 0.00 0.00
0.00 0.00 0.00 0.00 0.00 0.00 0.00 0.00 0.00 0.00 0.00 0.00 0.00 0.00 0.00 0.00 0.00 0.00 0.00 0.00 0.00 0.00 0.00 0.00 0.00 0.00 0.00 0.00 0.00 0.00 0.00 0.00 0.00 0.00 0.00 0.00 0.00 0.01 0.04 0.03 0.01 0.03 0.02
0.00 0.00 0.00 0.00 0.00 0.00 0.00 0.00 0.00 0.00 0.00 0.00 0.00 0.00 0.00 0.00 0.00 0.00 0.00 0.00 0.00 0.00 0.00 0.00 0.00 0.00 0.00 0.00 0.00 0.00 0.00 0.00 0.00 0.00 0.00 0.00 0.00 0.00 0.01 0.03 0.02 0.02 0.01
0.00 0.00 0.00 0.00 0.00 0.00 0.00 0.00 0.00 0.00 0.00 0.00 0.00 0.00 0.00 0.00 0.00 0.00 0.00 0.00 0.00 0.00 0.00 0.00 0.00 0.00 0.00 0.00 0.00 0.00 0.00 0.00 0.00 0.00 0.00 0.00 0.00 0.00 0.00 0.00 0.01 0.01 0.00
0.00 0.00 0.00 0.00 0.00 0.00 0.00 0.00 0.00 0.00 0.00 0.00 0.00 0.00 0.00 0.00 0.00 0.00 0.00 0.00 0.00 0.00 0.00 0.00 0.00 0.00 0.00 0.00 0.00 0.00 0.00 0.00 0.00 0.00 0.00 0.00 0.00 0.00 0.01 0.01 0.01 0.01 0.00
0.00 0.00 0.00 0.00 0.00 0.00 0.00 0.00 0.00 0.00 0.00 0.00 0.00 0.00 0.00 0.00 0.00 0.00 0.00 0.00 0.00 0.00 0.00 0.00 0.00 0.00 0.00 0.00 0.00 0.00 0.00 0.00 0.00 0.00 0.00 0.00 0.00 0.00 0.00 0.00 0.00 0.02 0.01
0.00 0.00 0.00 0.00 0.00 0.00 0.00 0.00 0.00 0.00 0.00 0.00 0.00 0.00 0.00 0.00 0.00 0.00 0.00 0.00 0.00 0.00 0.00 0.00 0.00 0.00 0.00 0.00 0.00 0.00 0.00 0.00 0.00 0.00 0.00 0.00 0.00 0.00 0.00 0.00 0.00 0.01 0.03
0.00 0.00 0.00 0.00 0.00 0.00 0.00 0.00 0.00 0.00 0.00 0.00 0.00 0.00 0.00 0.00 0.00 0.00 0.00 0.00 0.00 0.00 0.00 0.00 0.00 0.00 0.00 0.00 0.00 0.00 0.00 0.00 0.00 0.00 0.00 0.00 0.00 0.00 0.00 0.00 0.00 0.01 0.04
0.00 0.00 0.00 0.00 0.00 0.00 0.00 0.00 0.00 0.00 0.00 0.00 0.00 0.00 0.00 0.00 0.00 0.00 0.00 0.00 0.00 0.00 0.00 0.00 0.00 0.00 0.00 0.00 0.00 0.00 0.00 0.00 0.00 0.00 0.00 0.00 0.00 0.00 0.00 0.00 0.00 0.00 0.00
0.00 0.00 0.00 0.00 0.00 0.00 0.00 0.00 0.00 0.00 0.00 0.00 0.00 0.00 0.00 0.00 0.00 0.00 0.00 0.00 0.00 0.00 0.00 0.00 0.00 0.00 0.00 0.00 0.00 0.00 0.00 0.00 0.00 0.00 0.00 0.00 0.00 0.00 0.00 0.00 0.00 0.00 0.00
0.00 0.00 0.00 0.00 0.00 0.00 0.00 0.00 0.00 0.00 0.00 0.00 0.00 0.00 0.00 0.00 0.00 0.00 0.00 0.00 0.00 0.00 0.00 0.00 0.00 0.00 0.00 0.00 0.00 0.00 0.00 0.00 0.00 0.00 0.00 0.00 0.00 0.00 0.00 0.00 0.00 0.00 0.00
0.00 0.00 0.00 0.00 0.00 0.00 0.00 0.00 0.00 0.00 0.00 0.00 0.00 0.00 0.00 0.00 0.00 0.00 0.00 0.00 0.00 0.00 0.00 0.00 0.00 0.00 0.00 0.00 0.00 0.00 0.00 0.00 0.00 0.00 0.00 0.00 0.00 0.00 0.00 0.00 0.00 0.00 0.00
0.00 0.00 0.00 0.00 0.00 0.00 0.00 0.00 0.00 0.00 0.00 0.00 0.00 0.00 0.00 0.00 0.00 0.00 0.00 0.00 0.00 0.00 0.00 0.00 0.00 0.00 0.00 0.00 0.00 0.00 0.00 0.00 0.00 0.00 0.00 0.00 0.00 0.00 0.00 0.00 0.00 0.00 0.00
0.00 0.00 0.00 0.00 0.00 0.00 0.00 0.00 0.00 0.00 0.00 0.00 0.00 0.00 0.00 0.00 0.00 0.00 0.00 0.00 0.00 0.00 0.00 0.00 0.00 0.00 0.00 0.00 0.00 0.00 0.00 0.00 0.00 0.00 0.00 0.00 0.00 0.00 0.00 0.00 0.00 0.00 0.00
0.00 0.00 0.00 0.00 0.00 0.00 0.00 0.00 0.00 0.00 0.00 0.00 0.00 0.00 0.00 0.00 0.00 0.00 0.00 0.00 0.00 0.00 0.00 0.00 0.00 0.00 0.00 0.00 0.00 0.00 0.00 0.00 0.00 0.00 0.00 0.00 0.00 0.00 0.00 0.00 0.00 0.00 0.00
0.00 0.00 0.00 0.00 0.00 0.00 0.00 0.00 0.00 0.00 0.00 0.00 0.00 0.00 0.00 0.00 0.00 0.00 0.00 0.00 0.00 0.00 0.00 0.00 0.00 0.00 0.00 0.00 0.00 0.00 0.00 0.00 0.00 0.00 0.00 0.00 0.00 0.00 0.00 0.00 0.00 0.00 0.00
0.00 0.00 0.00 0.00 0.00 0.00 0.00 0.00 0.00 0.00 0.00 0.00 0.00 0.00 0.00 0.00 0.00 0.00 0.00 0.00 0.00 0.00 0.00 0.00 0.00 0.00 0.00 0.00 0.00 0.00 0.00 0.00 0.00 0.00 0.00 0.00 0.00 0.00 0.00 0.00 0.00 0.00 0.00
0.00 0.00 0.00 0.00 0.00 0.00 0.00 0.00 0.00 0.00 0.00 0.00 0.00 0.00 0.00 0.00 0.00 0.00 0.00 0.00 0.00 0.00 0.00 0.00 0.00 0.00 0.00 0.00 0.00 0.00 0.00 0.00 0.00 0.00 0.00 0.00 0.00 0.00 0.00 0.00 0.00 0.00 0.00
0.00 0.00 0.00 0.00 0.00 0.00 0.00 0.00 0.00 0.00 0.00 0.00 0.00 0.00 0.00 0.00 0.00 0.00 0.00 0.00 0.00 0.00 0.00 0.00 0.00 0.00 0.00 0.00 0.00 0.00 0.00 0.00 0.00 0.00 0.00 0.00 0.00 0.00 0.00 0.00 0.00 0.00 0.00
0.00 0.00 0.00 0.00 0.00 0.00 0.00 0.00 0.00 0.00 0.00 0.00 0.00 0.00 0.00 0.00 0.00 0.00 0.00 0.00 0.00 0.00 0.00 0.00 0.00 0.00 0.00 0.00 0.00 0.00 0.00 0.00 0.00 0.00 0.00 0.00 0.00 0.00 0.00 0.00 0.00 0.00 0.00
0.00 0.00 0.00 0.00 0.00 0.00 0.00 0.00 0.00 0.00 0.00 0.00 0.00 0.00 0.00 0.00 0.00 0.00 0.00 0.00 0.00 0.00 0.00 0.00 0.00 0.00 0.00 0.00 0.00 0.00 0.00 0.00 0.00 0.00 0.00 0.00 0.00 0.00 0.00 0.00 0.00 0.00 0.00
0.00 0.00 0.00 0.00 0.00 0.00 0.00 0.00 0.00 0.00 0.00 0.00 0.00 0.00 0.00 0.00 0.00 0.00 0.00 0.00 0.00 0.00 0.00 0.00 0.00 0.00 0.00 0.00 0.00 0.00 0.00 0.00 0.00 0.00 0.00 0.00 0.00 0.00 0.00 0.00 0.00 0.00 0.00
0.00 0.00 0.00 0.00 0.00 0.00 0.00 0.00 0.00 0.00 0.00 0.00 0.00 0.00 0.00 0.00 0.00 0.00 0.00 0.00 0.00 0.00 0.00 0.00 0.00 0.00 0.00 0.00 0.00 0.00 0.00 0.00 0.00 0.00 0.00 0.00 0.00 0.00 0.00 0.00 0.00 0.00 0.00
MSLP
1016.10 1016.64 1017.06 1017.22 1017.11 1017.21 1017.26 1017.25 1017.23 1017.22 1017.03 1016.64 1016.09 1015.25 1015.36 1015.39 1015.12 1014.91 1014.89 1014.80 1014.69 1014.67 1014.44 1014.30 1013.79 1013.64 1013.25 1013.05 1012.69 1012.08 1011.37 1010.73 1010.22 1010.24 1009.50 1009.20 1009.38 1008.91 1009.17 1008.17 1006.62 1009.69 1009.81
1015.72 1016.56 1017.08 1017.32 1017.58 1017.68 1017.65 1017.51 1017.51 1017.54 1017.36 1017.08 1016.89 1016.56 1016.02 1015.57 1015.71 1015.86 1015.31 1015.29 1015.32 1015.65 1015.62 1015.65 1015.23 1014.87 1014.53 1014.18 1013.88 1013.74 1012.91 1011.68 1010.66 1010.15 1010.07 1009.29 1008.87 1008.63 1008.42 1008.74 1008.24 1008.38 1008.78
1015.84 1016.64 1017.29 1017.83 1018.19 1018.52 1018.50 1018.25 1018.26 1018.12 1018.15 1017.89 1017.19 1016.68 1016.14 1015.66 1015.78 1015.84 1016.12 1015.86 1016.07 1016.21 1016.32 1016.13 1015.81 1015.51 1015.18 1014.85 1014.57 1014.48 1014.05 1013.03 1012.01 1011.15 1010.45 1009.61 1008.57 1007.91 1007.71 1007.51 1007.40 1007.86 1007.68
1016.47 1016.99 1017.97 1018.71 1019.12 1019.15 1019.31 1019.30 1019.05 1018.87 1018.79 1018.70 1018.14 1017.75 1017.21 1016.71 1016.62 1016.40 1016.49 1016.49 1016.46 1016.50 1016.69 1016.59 1016.21 1016.11 1015.77 1015.47 1015.11 1015.05 1014.87 1014.23 1013.09 1012.38 1011.13 1010.40 1009.80 1009.38 1007.80 1007.02 1006.93 1006.74 1007.21
1017.31 1017.92 1018.85 1019.20 1019.30 1019.31 1019.29 1019.34 1019.14 1019.04 1019.34 1019.34 1019.26 1018.83 1018.49 1018.31 1017.88 1017.61 1017.28 1017.16 1017.04 1016.98 1016.87 1017.09 1016.52 1016.28 1016.31 1015.96 1015.53 1015.37 1015.23 1014.62 1013.87 1013.27 1012.60 1011.68 1010.38 1009.80 1009.03 1007.73 1006.58 1006.02 1005.91
1017.67 1018.59 1019.16 1019.39 1019.46 1019.68 1019.76 1019.52 1019.30 1019.20 1019.51 1019.58 1019.63 1019.71 1019.64 1019.47 1019.08 1019.09 1018.63 1018.49 1018.10 1017.80 1017.82 1017.44 1017.11 1016.59 1016.54 1016.25 1016.09 1015.56 1015.26 1014.63 1014.09 1013.56 1013.08 1012.50 1011.79 1010.55 1009.85 1008.73 1007.58 1006.38 1005.21
1017.94 1018.54 1018.89 1019.29 1019.71 1019.81 1020.12 1020.11 1019.90 1019.80 1020.13 1020.22 1020.15 1020.16 1020.05 1019.91 1019.54 1019.62 1019.39 1019.46 1019.08 1019.11 1018.89 1018.08 1017.64 1017.12 1016.83 1016.77 1016.08 1015.69 1015.17 1014.79 1014.30 1013.62 1013.21 1012.90 1012.33 1011.61 1011.05 1010.33 1008.87 1007.42 1005.54
1018.20 1018.69 1019.16 1019.45 1019.78 1019.94 1020.80 1020.87 1020.53 1020.55 1020.76 1020.77 1020.69 1020.76 1020.70 1020.64 1020.53 1020.18 1020.00 1019.98 1019.81 1019.53 1019.40 1019.07 1018.18 1017.57 1017.37 1016.84 1016.31 1015.64 1015.48 1014.98 1014.70 1014.12 1013.45 1012.92 1012.49 1012.17 1011.51 1010.80 1009.92 1008.16 1006.37
1018.02 1018.86 1019.27 1019.63 1019.95 1020.40 1021.33 1021.57 1021.44 1021.28 1021.53 1021.51 1021.17 1021.19 1021.19 1021.06 1020.95 1020.65 1020.65 1020.60 1019.83 1019.82 1019.64 1019.26 1018.77 1017.62 1017.42 1017.20 1016.51 1016.15 1015.76 1015.66 1015.24 1014.66 1014.08 1013.45 1012.71 1012.35 1011.76 1011.14 1010.50 1009.43 1007.41
1017.99 1018.48 1018.74 1019.39 1020.02 1020.90 1021.48 1021.95 1022.01 1022.06 1022.06 1021.87 1021.69 1021.57 1021.46 1021.34 1021.33 1021.19 1021.13 1020.62 1019.99 1020.15 1019.89 1019.36 1018.86 1018.37 1017.80 1017.30 1016.91 1016.58 1016.49 1016.15 1015.76 1015.19 1014.70 1014.11 1013.80 1013.11 1012.50 1011.79 1011.02 1010.09 1008.25
1017.33 1018.05 1018.61 1019.25 1020.02 1020.76 1021.34 1022.03 1022.24 1022.39 1022.36 1022.11 1021.98 1021.81 1021.66 1021.58 1021.44 1021.40 1021.35 1021.09 1020.67 1020.57 1020.33 1019.91 1019.27 1018.76 1018.21 1017.94 1017.57 1017.37 1017.11 1016.60 1016.23 1015.97 1015.57 1015.18 1014.50 1013.70 1012.85 1012.15 1011.52 1010.39 1009.26
1016.60 1017.15 1018.05 1019.06 1020.08 1020.66 1021.45 1021.96 1022.42 1022.53 1022.45 1022.30 1022.09 1021.92 1021.78 1021.72 1021.61 1021.77 1021.68 1021.52 1021.32 1021.01 1020.80 1020.57 1020.08 1019.63 1019.17 1018.78 1018.08 1017.91 1017.52 1017.02 1016.65 1016.47 1016.12 1015.55 1014.90 1014.17 1013.43 1012.53 1011.60 1010.77 1009.84
1015.90 1016.70 1017.81 1018.96 1019.92 1020.86 1021.50 1022.10 1022.38 1022.36 1022.18 1022.09 1021.83 1021.82 1021.88 1021.78 1021.72 1021.70 1021.70 1021.60 1021.42 1020.93 1021.10 1020.80 1020.34 1020.21 1019.91 1019.60 1018.62 1018.01 1017.49 1017.27 1017.12 1016.88 1016.64 1016.22 1015.41 1014.46 1013.90 1012.99 1012.32 1011.63 1010.66
1015.36 1016.38 1017.32 1018.77 1020.05 1021.01 1021.58 1022.04 1022.42 1022.14 1022.24 1022.33 1022.22 1022.23 1022.33 1022.26 1022.27 1022.15 1022.00 1021.82 1021.64 1021.50 1021.26 1020.90 1020.80 1020.62 1020.60 1020.48 1019.42 1018.61 1018.12 1017.89 1017.62 1017.33 1016.88 1016.55 1016.06 1015.21 1014.42 1013.63 1013.09 1012.37 1011.42
1015.09 1016.12 1017.26 1018.74 1020.34 1021.04 1021.51 1022.05 1022.17 1022.10 1022.31 1022.51 1022.74 1022.74 1022.72 1022.79 1022.79 1022.72 1022.67 1022.51 1022.63 1022.54 1022.29 1021.73 1021.69 1021.51 1021.42 1021.36 1020.41 1019.40 1018.99 1018.70 1018.29 1017.80 1017.27 1016.99 1016.87 1016.16 1015.22 1014.50 1013.96 1013.30 1012.42
1015.07 1016.26 1017.39 1018.91 1020.26 1021.03 1021.47 1022.16 1021.99 1022.14 1022.65 1022.90 1023.11 1023.21 1023.31 1023.42 1023.55 1023.54 1023.52 1023.36 1023.37 1023.42 1023.22 1022.64 1022.58 1022.46 1022.32 1022.41 1021.31 1020.47 1019.92 1019.76 1019.18 1018.66 1018.15 1017.44 1017.14 1016.60 1015.52 1014.78 1014.42 1013.89 1013.10
1015.15 1016.53 1017.89 1019.30 1020.37 1021.18 1021.72 1022.02 1022.14 1022.40 1022.91 1023.31 1023.55 1023.86 1024.12 1024.33 1024.48 1024.45 1024.33 1024.22 1024.32 1024.34 1024.44 1023.98 1023.53 1023.60 1023.29 1023.05 1021.93 1021.07 1020.70 1020.15 1020.07 1019.71 1019.51 1018.66 1018.35 1017.68 1016.55 1015.52 1014.95 1014.69 1014.41
1015.77 1017.59 1018.84 1019.90 1020.98 1021.71 1021.98 1022.18 1022.33 1022.80 1023.40 1023.86 1024.28 1024.46 1024.69 1024.91 1025.03 1025.15 1025.16 1025.05 1025.16 1025.18 1025.18 1024.99 1024.77 1024.32 1024.22 1023.94 1023.02 1021.83 1021.11 1020.97 1020.75 1020.70 1020.73 1020.07 1019.57 1018.74 1017.87 1016.90 1016.21 1015.67 1015.26
1016.83 1018.65 1019.69 1020.52 1021.51 1022.16 1022.51 1022.55 1022.82 1023.35 1023.91 1024.53 1024.98 1025.27 1025.63 1025.75 1025.75 1025.79 1025.76 1025.67 1025.59 1025.55 1025.57 1025.60 1025.43 1025.37 1025.06 1024.66 1023.85 1022.65 1021.77 1021.59 1021.32 1021.23 1021.11 1020.85 1020.62 1019.90 1018.62 1018.20 1017.46 1016.67 1015.86
1017.89 1019.47 1020.44 1021.27 1022.02 1022.45 1022.82 1023.13 1023.49 1024.03 1024.72 1024.94 1025.11 1025.60 1025.97 1026.24 1026.25 1026.22 1026.23 1026.25 1026.05 1026.00 1025.89 1025.91 1025.88 1025.93 1025.61 1025.23 1024.50 1023.89 1023.07 1022.17 1021.98 1021.67 1021.57 1021.78 1021.45 1020.59 1019.57 1019.28 1018.47 1017.59 1016.81
1018.96 1020.22 1021.13 1021.75 1022.41 1022.80 1023.21 1023.72 1024.10 1024.80 1025.12 1025.45 1025.84 1025.99 1026.08 1026.53 1026.46 1026.58 1026.62 1026.49 1026.49 1026.37 1026.24 1026.13 1026.16 1025.93 1025.79 1025.54 1025.03 1024.71 1024.36 1023.68 1022.94 1022.81 1022.66 1022.51 1022.03 1021.39 1020.67 1020.20 1019.47 1018.82 1017.63
1019.70 1020.65 1021.21 1021.86 1022.31 1022.79 1023.44 1024.09 1024.63 1025.15 1025.33 1025.68 1026.30 1026.47 1026.51 1026.55 1026.75 1026.87 1026.80 1026.76 1026.60 1026.48 1026.21 1026.03 1025.95 1026.15 1026.13 1026.18 1025.86 1025.43 1025.27 1024.91 1024.21 1024.03 1024.03 1023.39 1022.77 1022.01 1021.43 1020.96 1020.41 1019.45 1018.34
1019.94 1020.60 1021.02 1021.24 1021.64 1022.21 1022.83 1023.41 1024.44 1025.13 1025.55 1026.03 1026.46 1026.61 1026.76 1026.86 1026.81 1026.92 1026.86 1026.68 1026.69 1026.58 1026.52 1026.46 1026.44 1026.65 1026.89 1026.82 1026.66 1026.19 1025.86 1025.64 1025.15 1024.85 1024.48 1023.77 1023.11 1022.63 1022.10 1021.53 1020.82 1020.08 1019.44
1019.90 1020.24 1020.47 1020.77 1021.21 1021.77 1022.31 1022.93 1023.57 1024.06 1024.51 1025.09 1025.63 1026.15 1026.40 1026.66 1026.74 1026.87 1027.33 1027.69 1027.66 1027.46 1027.43 1027.34 1027.53 1027.51 1027.67 1027.77 1027.57 1027.09 1026.52 1026.20 1025.61 1024.89 1024.39 1024.16 1023.71 1023.27 1022.92 1022.16 1021.53 1021.16 1020.77
1019.73 1019.93 1020.31 1020.87 1021.62 1022.10 1022.53 1023.00 1023.39 1023.75 1024.34 1024.95 1025.46 1025.92 1026.29 1026.65 1027.59 1028.40 1028.57 1028.58 1029.40 1029.26 1028.84 1028.63 1028.43 1028.57 1028.56 1028.65 1028.34 1027.84 1027.26 1026.65 1026.08 1025.15 1024.79 1024.47 1023.98 1023.43 1023.08 1022.72 1022.30 1021.86 1021.50
1019.72 1020.13 1020.68 1021.37 1021.97 1022.52 1023.00 1023.30 1023.74 1024.10 1024.45 1024.96 1025.46 1025.96 1026.19 1026.63 1026.76 1027.36 1028.90 1029.73 1029.80 1029.94 1029.94 1029.93 1029.67 1029.28 1029.41 1029.08 1028.57 1027.95 1027.38 1026.94 1026.10 1025.32 1025.05 1024.94 1024.63 1024.14 1023.64 1023.31 1022.92 1022.52 1022.23
Thickness
5611 5607 5604 5603 5603 5602 5601 5601 5599 5597 5596 5597 5599 5604 5600 5598 5599 5599 5599 5599 5600 5600 5602 5605 5611 5613 5617 5619 5621 5629 5638 5645 5650 5647 5655 5659 5661 5666 5658 5663 5648 5659 5657
5606 5599 5595 5593 5591 5589 5588 5587 5585 5583 5583 5582 5581 5580 5581 5583 5579 5576 5579 5578 5578 5576 5576 5578 5581 5585 5589 5593 5596 5598 5608 5621 5632 5632 5631 5638 5647 5652 5658 5655 5661 5667 5664
5596 5590 5584 5578 5574 5569 5568 5569 5567 5566 5562 5560 5563 5564 5566 5567 5563 5562 5558 5559 5557 5556 5555 5557 5561 5564 5568 5571 5575 5576 5580 5591 5604 5611 5615 5620 5630 5641 5648 5655 5661 5661 5666
5582 5578 5568 5559 5554 5552 5548 5545 5544 5542 5540 5536 5538 5538 5541 5542 5541 5541 5538 5538 5537 5535 5535 5535 5540 5543 5547 5551 5556 5556 5557 5563 5576 5584 5596 5605 5611 5609 5626 5643 5653 5659 5658
5564 5559 5547 5543 5541 5538 5535 5531 5530 5528 5521 5518 5516 5516 5515 5514 5515 5516 5516 5516 5516 5516 5518 5517 5523 5528 5529 5533 5539 5539 5541 5546 5553 5559 5567 5577 5591 5598 5603 5615 5635 5649 5655
5550 5540 5534 5531 5528 5524 5520 5518 5517 5514 5508 5504 5500 5496 5493 5490 5490 5489 5490 5489 5493 5497 5497 5501 5506 5511 5514 5518 5522 5527 5530 5534 5539 5543 5550 5555 5563 5577 5584 5595 5614 5628 5646
5537 5533 5529 5523 5516 5513 5507 5504 5502 5500 5493 5489 5487 5483 5481 5478 5476 5473 5474 5471 5474 5473 5477 5483 5487 5494 5498 5502 5509 5514 5519 5522 5526 5532 5536 5539 5545 5555 5562 5571 5588 5605 5629
5523 5520 5515 5511 5506 5502 5490 5486 5487 5483 5478 5475 5473 5469 5466 5462 5458 5458 5459 5458 5459 5461 5461 5463 5472 5478 5483 5491 5498 5505 5506 5510 5511 5515 5521 5528 5532 5536 5545 5556 5567 5586 5606
5516 5506 5502 5498 5493 5486 5474 5469 5469 5468 5462 5459 5459 5456 5452 5449 5448 5445 5442 5441 5447 5447 5447 5449 5455 5466 5472 5478 5488 5492 5494 5494 5496 5500 5504 5510 5519 5524 5532 5540 5549 5563 5583
5503 5500 5499 5491 5482 5470 5464 5457 5454 5451 5448 5447 5446 5443 5441 5439 5436 5434 5430 5432 5436 5434 5436 5439 5446 5454 5462 5470 5474 5478 5478 5481 5483 5487 5489 5493 5497 5505 5512 5521 5531 5543 5566
5500 5494 5490 5482 5472 5464 5457 5448 5443 5439 5436 5435 5433 5431 5430 5427 5426 5424 5421 5421 5423 5423 5426 5428 5436 5444 5451 5456 5459 5462 5464 5468 5470 5470 5472 5473 5478 5487 5498 5507 5515 5527 5539
5496 5493 5486 5474 5462 5455 5446 5440 5432 5428 5426 5424 5422 5421 5419 5417 5416 5412 5411 5410 5409 5411 5415 5418 5424 5429 5435 5440 5447 5449 5453 5457 5458 5457 5458 5461 5464 5471 5482 5492 5503 5513 5522
5493 5487 5477 5465 5453 5442 5435 5428 5423 5421 5419 5417 5416 5413 5409 5407 5406 5404 5403 5403 5402 5405 5403 5407 5412 5415 5420 5424 5434 5440 5445 5446 5446 5446 5447 5448 5453 5460 5467 5478 5486 5494 5504
5488 5480 5472 5456 5442 5432 5426 5420 5414 5413 5409 5405 5403 5400 5396 5393 5392 5392 5392 5394 5394 5394 5395 5399 5402 5405 5407 5408 5419 5427 5430 5432 5434 5435 5438 5439 5442 5448 5455 5462 5467 5474 5485
5481 5474 5462 5447 5429 5422 5418 5411 5407 5404 5399 5395 5390 5386 5383 5380 5378 5378 5378 5379 5378 5379 5381 5386 5387 5390 5392 5393 5402 5411 5413 5416 5419 5422 5426 5427 5427 5432 5441 5446 5450 5454 5464
5472 5463 5451 5435 5422 5414 5408 5400 5399 5394 5387 5382 5377 5373 5369 5366 5363 5362 5362 5364 5365 5364 5367 5373 5373 5375 5377 5376 5385 5391 5396 5396 5401 5405 5409 5415 5416 5419 5428 5435 5438 5443 5450
5463 5450 5436 5421 5411 5403 5397 5392 5388 5383 5375 5370 5365 5359 5354 5349 5347 5347 5349 5351 5350 5351 5350 5356 5359 5359 5363 5364 5372 5378 5380 5385 5384 5387 5387 5394 5396 5401 5410 5418 5423 5425 5428
5447 5428 5416 5406 5396 5390 5386 5382 5378 5372 5364 5358 5352 5349 5344 5339 5337 5336 5337 5340 5340 5340 5340 5343 5345 5350 5351 5351 5357 5365 5372 5371 5372 5371 5369 5374 5377 5382 5389 5397 5402 5405 5409
5424 5406 5399 5393 5384 5377 5372 5372 5367 5361 5354 5347 5341 5338 5332 5328 5328 5329 5330 5333 5334 5335 5336 5335 5336 5337 5339 5342 5347 5355 5362 5362 5363 5362 5362 5362 5361 5365 5374 5375 5380 5386 5392
5404 5391 5383 5377 5370 5366 5362 5359 5355 5349 5341 5340 5337 5332 5326 5322 5322 5324 5324 5325 5328 5329 5331 5330 5330 5329 5331 5333 5338 5343 5348 5354 5355 5356 5355 5350 5351 5356 5362 5361 5366 5370 5375
5387 5377 5371 5364 5357 5354 5351 5346 5343 5336 5334 5332 5327 5325 5323 5319 5320 5319 5319 5322 5323 5324 5325 5325 5324 5326 5327 5328 5331 5332 5334 5338 5343 5341 5341 5340 5342 5344 5348 5349 5353 5356 5363
5372 5365 5360 5354 5352 5348 5343 5336 5332 5329 5328 5326 5320 5318 5318 5317 5316 5316 5317 5318 5320 5321 5323 5324 5324 5322 5321 5320 5321 5323 5323 5325 5328 5327 5325 5328 5331 5335 5337 5338 5339 5344 5350
5362 5358 5354 5354 5352 5348 5343 5338 5330 5325 5322 5319 5316 5315 5314 5313 5315 5315 5317 5318 5318 5319 5319 5319 5318 5314 5311 5310 5310 5312 5314 5314 5315 5315 5316 5319 5322 5323 5325 5326 5329 5332 5333
5356 5354 5354 5353 5350 5347 5342 5337 5333 5330 5328 5324 5320 5317 5316 5314 5315 5315 5312 5309 5309 5310 5309 5308 5304 5304 5301 5299 5299 5301 5303 5303 5305 5308 5309 5309 5309 5310 5309 5312 5313 5312 5312
5352 5351 5349 5346 5341 5338 5335 5332 5331 5329 5325 5322 5319 5317 5315 5312 5305 5300 5300 5299 5291 5292 5294 5294 5294 5292 5290 5288 5288 5289 5291 5293 5295 5299 5299 5298 5298 5298 5298 5297 5296 5296 5294
5346 5344 5340 5336 5334 5331 5328 5327 5325 5324 5322 5320 5317 5314 5312 5309 5309 5305 5293 5286 5285 5282 5281 5280 5280 5280 5277 5277 5279 5281 5282 5282 5285 5288 5286 5283 5282 5282 5282 5279 5278 5276 5274